Regional Weather Roundup
Issued by NWS

Home | Current Version | Previous Version | Graphics & Text | Print | Product List | Glossary On
Versions: 1 2 3 4 5 6 7 8 9 10 11 12 13 14 15 16 17 18 19 20 21 22 23 24 25 26 27 28 29 30 31 32 33 34 35 36 37 38 39 40 41 42 43 44 45 46 47 48 49 50
000
ASUS43 KLOT 211610
RWRIL

ILLINOIS REGIONAL WEATHER ROUNDUP
NATIONAL WEATHER SERVICE CHICAGO/ROMEOVILLE IL
1100 AM CDT TUE OCT 21 2014

NOTE: "FAIR" INDICATES FEW OR NO CLOUDS BELOW 12,000 FEET WITH NO
SIGNIFICANT WEATHER AND/OR OBSTRUCTIONS TO VISIBILITY.

* THESE STATIONS ARE NOT UNDER NWS QUALITY CONTROL. THEY ALSO MAY NOT
  REPORT WEATHER SUCH AS PRECIPITATION OR FOG.

ILZ001-002-007-009-015-016-024-211700-
NORTHWEST ILLINOIS

CITY           SKY/WX    TMP DP  RH WIND       PRES   REMARKS
MOLINE         SUNNY     54  41  61 E8        30.20R
STERLING*      MOSUNNY   55  41  58 NE12      30.19S
SAVANNA*       SUNNY     53  38  56 N7        30.21R
$$

ILZ003-004-008-010-011-017-018-211700-
NORTH CENTRAL ILLINOIS

CITY           SKY/WX    TMP DP  RH WIND       PRES   REMARKS
ROCKFORD       PTSUNNY   49  37  63 NE14      30.23R
FREEPORT*      SUNNY     49  38  65 NE7       30.22R
ROCHELLE*      SUNNY     50  38  62 NE15      30.20R
DE KALB*       MOSUNNY   49  38  65 N9G20     30.19S
PERU*          SUNNY     53  37  53 NE12      30.18S
$$

ILZ005-006-012>014-019>023-211700-
NORTHEAST ILLINOIS

CITY           SKY/WX    TMP DP  RH WIND       PRES   REMARKS
CHICAGO-OHARE  PTSUNNY   50  40  68 N15       30.17R
CHICAGO-MIDWAY CLOUDY    51  42  71 N15       30.16R
AURORA         CLOUDY    51  39  63 N12       30.18R
LANSING*       CLOUDY    50  43  75 N10G18    30.15R
JOLIET*          N/A     52  39  61 N9        30.17R
WAUKEGAN       CLOUDY    49  40  71 N12G23    30.17R
DUPAGE AIRPORT CLOUDY    52  40  63 N12       30.17R
KANKAKEE*      CLOUDY    52  39  61 N7        30.16S
WHEELING       CLOUDY    51  40  65 N13       30.18R
MORRIS*        PTSUNNY   54  40  59 N6        30.16S
ROMEOVILLE*    CLOUDY    51  39  64 N9        30.17R
NORTHERLY ISL    N/A     50  43  77 NW17        N/A
$$

LMZ740>746-211700-
SOUTHERN LAKE MICHIGAN

STATION/POSITION SKY/WX   TEMP    WIND        PRES    VSBY  WAVE
                          AIR SEA DIR/SP/G                  HT/PER
                          (F)     (DEG/KT/KT) (MB)    (MI)  (FT/S)
SOUTHERN BUOY              50 54  360/ 19/ 23 1020.8R         7/ 7
WAUKEGAN HARBOR            49      10/ 14/ 20   N/A
HARRISON CRIB              49     350/ 24/ 28   N/A
BURNHAM HARBOR             50     340/ 19/ 19   N/A
CALUMET HARBOR             49     320/ 11/ 17 1019.9R
MICHIGAN CITY              51     340/ 24/ 27   N/A
$$

ILZ025>027-034>036-040-047-049-050-058-095>099-211700-
WEST-CENTRAL ILLINOIS

CITY           SKY/WX    TMP DP  RH WIND       PRES   REMARKS
QUINCY         SUNNY     57  41  55 NE10      30.17R
GALESBURG*     SUNNY     54  42  62 NE10      30.19R
MACOMB*        SUNNY     55  43  63 NE9       30.21R
JACKSONVILLE*  SUNNY     59  44  59 NE9       30.16S
PITTSFIELD*    SUNNY     57  44  62 NE7       30.17S
$$

ILZ028>032-037-038-041>044-048-051>054-059>061-211700-
CENTRAL ILLINOIS

CITY           SKY/WX    TMP DP  RH WIND       PRES   REMARKS
BLOOMINGTON    SUNNY     55  41  59 NE13      30.16S
DECATUR        SUNNY     56  43  61 N10       30.15S
PEORIA         MOSUNNY   56  42  59 NE9       30.17S
LACON*         MOSUNNY   53  40  60 N7        30.17S
LINCOLN*       SUNNY     57  44  59 N7        30.15S
SPRINGFIELD    SUNNY     58  45  62 NE12      30.16S
TAYLORVILLE    SUNNY     55  43  62 N9        30.15S
$$

ILZ033-039-045-046-055>057-062-063-211700-
EAST-CENTRAL ILLINOIS

CITY           SKY/WX    TMP DP  RH WIND       PRES   REMARKS
CHAMPAIGN      MOSUNNY   54  44  69 N12       30.14R
DANVILLE*      PTSUNNY   55  43  63 N15       30.10S
RANTOUL*       SUNNY     56  40  53 NE12G17   30.14S
MATTOON        MOSUNNY   57  44  62 N9        30.12S
PARIS*         PTSUNNY   56  45  64 N9        30.13R
$$

ILZ079-100>102-211700-
SOUTHWEST ILLINOIS

CITY           SKY/WX    TMP DP  RH WIND       PRES   REMARKS
BELLEVILLE     SUNNY     61  46  56 VRB7      30.13R
CAHOKIA*       SUNNY     61  48  62 VRB6      30.14R
SPARTA*        SUNNY     60  47  62 N7        30.13R
$$

ILZ064>066-069>071-074>076-080>082-084>086-088>090-092>094-211700-
SOUTH-CENTRAL ILLINOIS

CITY           SKY/WX    TMP DP  RH WIND       PRES   REMARKS
CARBONDALE     SUNNY     62  47  57 NW8       30.11S
CAIRO*         SUNNY     70  47  44 NW8       30.10S
EFFINGHAM*     SUNNY     59  44  56 N7        30.13S
MARION         SUNNY     61  48  63 N9        30.12R
MT. VERNON     SUNNY     61  46  59 NE7       30.13S
CENTRALIA*     SUNNY     60  44  55 NE5       30.13R
SALEM*         SUNNY     62  47  57 N8        30.13R
METROPOLIS*    SUNNY     64  50  60 W5        30.08F
$$

ILZ067-068-072-073-078-083-087-091-211700-
SOUTHEAST ILLINOIS

CITY           SKY/WX    TMP DP  RH WIND       PRES   REMARKS
LAWRENCEVILLE  PTSUNNY   59  47  64 N12       30.12R
FLORA*         SUNNY     59  45  58 NE8       30.12S
FAIRFIELD*     SUNNY     60  46  59 N7        30.11S
HARRISBURG*    SUNNY     60  47  61 NE7       30.12R
ROBINSON*      PTSUNNY   60  47  64 N8        30.13R
CARMI*         SUNNY     62  48  59 N8        30.10S
$$

ABBREVIATIONS USED IN REMARKS
   TC - TEMPERATURE IN CELSIUS
  WCI - WIND CHILL INDEX
   HX - HEAT INDEX
  VSB - VISIBILITY
$$




USA.gov is the U.S. government's official web portal to all federal, state and local government web resources and services.